Location: Pallagorio
(39.3000°N, 16.9000°E)
Time: 00:40:16
(UTC+00:00)

Cosmos 1844 - Pass Details

Date: 24 January 2021
Orbit: 821 x 869 km, 70.9° (Epoch: 08 March)

Event Time Altitude Azimuth Distance (km) Brightness Sun altitude
Rises 16:48:13 0° 205° (SSW) 3,367 7.5 -8.9°
Reaches altitude 10° 16:50:37 10° 207° (SSW) 2,443 6.8 -9.3°
Maximum altitude 16:56:14 78° 294° (WNW) 870 3.9 -10.4°
Drops below altitude 10° 17:01:58 10° 20° (NNE) 2,492 5.8 -11.4°
Sets 17:04:28 0° 22° (NNE) 3,438 6.5 -11.9°
